TimeMDT,TemperatureF,Dew PointF,Humidity,Sea Level PressureIn,VisibilityMPH,Wind Direction,Wind SpeedMPH,Gust SpeedMPH,PrecipitationIn,Events,Conditions,WindDirDegrees,DateUTC
12:56 AM,64.9,55.0,70,29.83,10.0,SE,12.7,-,N/A,,Clear,130,2013-06-19 06:56:00
1:56 AM,61.0,54.0,78,29.83,10.0,East,6.9,-,N/A,,Clear,90,2013-06-19 07:56:00
2:56 AM,59.0,55.0,87,29.82,10.0,ESE,9.2,-,N/A,,Clear,110,2013-06-19 08:56:00
3:56 AM,59.0,55.0,87,29.81,10.0,ESE,10.4,-,N/A,,Clear,110,2013-06-19 09:56:00
4:56 AM,60.1,55.0,83,29.79,10.0,SE,16.1,-,N/A,,Clear,130,2013-06-19 10:56:00
5:56 AM,59.0,55.0,87,29.80,10.0,SSE,6.9,-,N/A,,Clear,150,2013-06-19 11:56:00
6:56 AM,61.0,57.0,87,29.79,10.0,East,9.2,-,N/A,,Clear,80,2013-06-19 12:56:00
7:56 AM,64.9,57.9,78,29.79,10.0,ESE,12.7,-,N/A,,Clear,110,2013-06-19 13:56:00
8:56 AM,70.0,59.0,68,29.77,10.0,SE,13.8,-,N/A,,Clear,130,2013-06-19 14:56:00
9:56 AM,73.9,59.0,59,29.76,10.0,ESE,17.3,-,N/A,,Clear,120,2013-06-19 15:56:00
10:56 AM,78.1,59.0,52,29.75,10.0,ESE,18.4,26.5,N/A,,Clear,120,2013-06-19 16:56:00
11:56 AM,81.0,59.0,47,29.74,10.0,SE,21.9,29.9,N/A,,Clear,130,2013-06-19 17:56:00
12:56 PM,82.9,59.0,44,29.71,10.0,SE,17.3,28.8,N/A,,Clear,140,2013-06-19 18:56:00
1:56 PM,82.9,60.1,46,29.71,10.0,SE,24.2,35.7,N/A,,Clear,130,2013-06-19 19:56:00
2:56 PM,82.9,57.0,41,29.70,10.0,SE,24.2,36.8,N/A,,Clear,130,2013-06-19 20:56:00
3:56 PM,82.9,57.0,41,29.68,10.0,SE,28.8,36.8,N/A,,Clear,130,2013-06-19 21:56:00
4:56 PM,81.0,57.9,45,29.68,10.0,SE,20.7,36.8,N/A,,Clear,130,2013-06-19 22:56:00
5:56 PM,79.0,61.0,54,29.68,10.0,ESE,28.8,36.8,N/A,,Clear,120,2013-06-19 23:56:00
6:56 PM,77.0,62.1,60,29.67,10.0,ESE,24.2,33.4,N/A,,Clear,120,2013-06-20 00:56:00
7:56 PM,75.0,61.0,62,29.65,10.0,ESE,21.9,27.6,N/A,,Clear,110,2013-06-20 01:56:00
8:56 PM,71.1,61.0,70,29.65,10.0,ESE,19.6,26.5,N/A,,Clear,110,2013-06-20 02:56:00
9:56 PM,69.1,60.1,73,29.66,10.0,East,17.3,-,N/A,,Partly Cloudy,100,2013-06-20 03:56:00
10:56 PM,68.0,60.1,76,29.62,10.0,East,21.9,-,N/A,,Clear,100,2013-06-20 04:56:00
11:56 PM,68.0,61.0,78,29.60,10.0,East,18.4,26.5,N/A,,Clear,100,2013-06-20 05:56:00